Location: ????????
(55.0559°N, 39.1270°E)
Time: 00:49:36
(UTC+00:00)

USA 267 - Pass Details

Date: 15 November 2025
Orbit: 1100 x 1108 km, 123.0° (Epoch: 21 November)

Event Time Altitude Azimuth Distance (km) Brightness Sun altitude
Rises 03:14:59 0° 68° (ENE) 3,926 7.1 -14.1°
Reaches altitude 10° 03:17:28 10° 69° (ENE) 2,966 6.4 -13.8°
Maximum altitude 03:24:02 83° 157° (SSE) 1,114 3.3 -12.9°
Drops below altitude 10° 03:30:35 10° 247° (WSW) 2,956 5.1 -12.0°
Enters shadow 03:31:26 - 248° (WSW) 3,281 5.3 -11.8°
